Regional Weather Roundup
Issued by NWS Sterling, VA

Home | Current Version | Previous Version | Text Only | Print | Product List | Glossary On
Versions: 1 2 3 4 5 6 7 8 9 10 11 12 13 14 15 16 17 18 19 20 21 22 23 24 25 26 27 28 29 30 31 32 33 34 35 36 37 38 39 40 41 42 43 44 45 46 47 48 49 50
400
ASUS41 KLWX 292210
RWRLWX

REGIONAL WEATHER ROUNDUP
NATIONAL WEATHER SERVICE BALTIMORE MD/WASHINGTON DC
600 PM EDT FRI APR 29 2016

Note: "FAIR" indicates few or no clouds below 12,000 feet
with no significant weather and/or obstructions to visibility.
 TC=TEMPERATURE CELSIUS

 * =Non NWS site. Station does not report precipitation (e.g. rain,
    snow, etc.), thunder, or fog.

DCZ001-MDZ009-015-VAZ040>042-051-053>054-292300-
WASHINGTON METRO

CITY           SKY/WX    TMP DP  RH WIND       PRES   REMARKS
WASHINGTON NAT CLOUDY    55  50  83 E10       30.02S
DULLES         CLOUDY    55  48  77 E5        30.02R
ANDREWS AFB    CLOUDY    53  49  88 E6        30.01F
FT BELVOIR     CLOUDY    55  50  81 VRB1      30.02S
QUANTICO       CLOUDY    57  50  77 NE3       30.02S
COLLEGE PARK*  CLOUDY    52  48  87 NE5       30.02F
LEESBURG*      CLOUDY    55  52  88 E3        30.03R
MANASSAS*      CLOUDY    55  52  88 CALM      30.01S
GAITHERSBURG*  CLOUDY    52  46  82 SE7       30.06R

$$

MDZ006>007-011-014-292300-
BALTIMORE METRO

CITY           SKY/WX    TMP DP  RH WIND       PRES   REMARKS
BWI AIRPORT    CLOUDY    52  48  86 E8        30.03R
MD SCIENCE CTR   N/A     53  47  79 MISG      30.04S
MARTIN STATE   CLOUDY    54  52  94 NE5       30.06R
ANNAPOLIS      CLOUDY    53  49  86 MISG      30.03S
FORT MEADE*    CLOUDY    52  46  82 NE5       30.05F

$$

MDZ012-015-019>023-292300-
MARYLAND EASTERN SHORE

CITY           SKY/WX    TMP DP  RH WIND       PRES   REMARKS
OCEAN CITY     CLOUDY    52  47  83 NE12G18   30.02F
SALISBURY      CLOUDY    52  49  89 NE12      30.01F
CAMBRIDGE*     CLOUDY    52  48  87 CALM      30.02R
EASTON*        CLOUDY   N/A N/A N/A E8        30.07S

$$

MDZ017>025-292300-
SOUTHERN MARYLAND

CITY           SKY/WX    TMP DP  RH WIND       PRES   REMARKS
PATUXENT RIVER CLOUDY    54  49  83 E6        30.01S
ST INIGOES     CLOUDY    55  51  86 NE6         N/A
LEONARDTOWN*   CLOUDY    54  50  87 CALM      30.01F

$$

MDZ003>005-292300-
NORTH CENTRAL MARYLAND

CITY           SKY/WX    TMP DP  RH WIND       PRES   REMARKS
FREDERICK*     CLOUDY    54  52  94 CALM      30.05F FOG
HAGERSTOWN APT CLOUDY    52  46  80 CALM      30.02R
WESTMINSTER*   CLOUDY    52  48  87 E3        30.03R

$$

MDZ501>502-292300-
WESTERN MARYLAND

CITY           SKY/WX    TMP DP  RH WIND       PRES   REMARKS
OAKLAND*       PTSUNNY   54  48  82 NW8       30.00R
CUMBERLAND*    CLOUDY    54  50  87 NE6       30.05R

$$

VAZ025>031-292300-
SHENANDOAH VALLEY

CITY           SKY/WX    TMP DP  RH WIND       PRES   REMARKS
WINCHESTER*    CLOUDY    54  50  87 E5        30.01R
FRONT ROYAL*   CLOUDY    55  50  82 NE7       29.98R
LURAY*         FAIR      61  54  77 NE10      29.97R
NEW MARKET*    MOCLDY    61  55  78 NE8       29.95R
STAUNTON*      FAIR      62  54  76 E8        29.97R
WAYNESBORO*    CLOUDY    55  51  86 MISG      29.96S

$$

WVZ021-048>050-054>055-292300-
EASTERN WEST VIRGINIA PANHANDLE

CITY           SKY/WX    TMP DP  RH WIND       PRES   REMARKS
MARTINSBURG    CLOUDY    52  48  86 E5        30.01R FOG
PETERSBURG*    PTSUNNY   61  54  76 N10       29.97R

$$

VAZ036>039-050-292300-
CENTRAL FOOTHILLS

CITY           SKY/WX    TMP DP  RH WIND       PRES   REMARKS
CHARLOTTESVILL CLOUDY    56  51  84 NE3       29.99S
CULPEPER*      CLOUDY    56  52  88 CALM      30.02R
ORANGE*        CLOUDY    55  54  94 CALM      30.01S
GORDONSVILLE*  CLOUDY    54  53  94 CALM      30.00S
WARRENTON*     CLOUDY    56  48  74 CALM      30.01R

$$

VAZ055>057-292300-
NORTH AND CENTRAL PIEDMONT

CITY           SKY/WX    TMP DP  RH WIND       PRES   REMARKS
FREDERICKSBRG* CLOUDY    56  55  95 CALM      30.00R
STAFFORD*      CLOUDY    55  50  83 CALM      30.05R

$$

NCZ024-NYZ072-PAZ021-071-VAZ022-071-292300-
OTHER REGIONAL OBSERVATIONS

CITY           SKY/WX    TMP DP  RH WIND       PRES   REMARKS
NEW YORK CITY  CLOUDY    52  35  52 VRB7      30.11R
PHILADELPHIA   CLOUDY    50  43  77 E12       30.07F
PITTSBURGH     LGT RAIN  53  48  83 N10       30.02R
ROANOKE        FAIR      82  44  26 W9G18     29.93R
RICHMOND       CLOUDY    60  53  77 NE3       29.99S
RALEIGH        MOSUNNY   76  59  55 SE8       29.94S

$$

ANZ530>537-292300-
MARINE OBSERVATIONS

STATION/POSITION TIME  TEMP    WIND        PRES
                       AIR SEA DIR/SP/G
                 (UTC) (F)     (DEG/KT/KT) (MB)
THOMAS PT LIGHT  2200   52 57   70/  7/  9 1018.1R
BALT KEY BRIDGE  2100   52      90/  8/  8 1016.9F
COVE POINT       2100   53      90/  6/  9 1016.8F
LEWISETTA        2100   55 60   60/  5/  7 1016.0F
SOLOMONS ISLAND  2100   54      40/  6/  8   N/A
PINEY POINT      2100           50/  4/  5   N/A

$$





USA.gov is the U.S. government's official web portal to all federal, state and local government web resources and services.